Location: Umburanas
(4.5000°S, 37.9667°W)
Time: 13:51:32
(UTC+00:00)

Atlas Centaur 2 - Pass Details

Date: 19 November 2019
Orbit: 459 x 1310 km, 30.4° (Epoch: 15 December)

Event Time Altitude Azimuth Distance (km) Brightness Sun altitude
Rises 20:42:52 0° 246° (WSW) 4,274 8.8 -4.5°
Reaches altitude 10° 20:45:54 10° 250° (WSW) 3,322 7.2 -5.2°
Maximum altitude 20:54:16 58° 326° (NW) 1,461 3.5 -7.2°
Drops below altitude 10° 21:01:56 10° 44° (NE) 3,051 4.5 -9.0°
Enters shadow 21:02:37 - 45° (NE) 3,268 4.7 -9.1°
